sat.trackr.live / text

‹ back to catalog

TRANSPORTER-10 OBJECT AD

NORAD 59125 · 2024-043AD

PAYLOAD ACTIVE UNKNOWN

§ Identity

Operator
Country
TBD
Launch date
2024-03-04
Launch site
AFWTR
Launch vehicle
Mass (kg)
RCS (m²)

External: N2YO · Heavens-Above · Gunter

§ Orbital elements

Epoch: 2026-05-25T03:07:41.649888Z

Period
93.77 min
Inclination
97.5606°
Eccentricity
0.0008074
Mean motion
15.35632871 rev/d
Perigee alt
453.5 km
Apogee alt
464.6 km
Semi-major
6,837.2 km
B*
2.1024e-4
RAAN
285.5106°
Arg perigee
321.0364°
Mean anomaly
39.0297°
Rev number
12,372

§ Raw data

TRANSPORTER-10 OBJECT AD1 59125U 24043AD  26145.13034317  .00007206  00000+0  21024-3 0  99912 59125  97.5606 285.5106 0008074 321.0364  39.0297 15.35632871123728

JSON: /api/v1/satellites/59125 · /tle

For live sub-satellite position, see the globe view (requires WebGL).

§ Visibility from observer

Set your observer location to see the next 7 days of passes ≥ 10°. The values pass through the URL so the page stays shareable.

No JS? Fill the form by hand. The geolocation button needs JavaScript.